Regional Weather Roundup
Issued by NWS Charleston, SC

Current Version | Previous Version | Graphics & Text | Print | Product List | Glossary On
Versions: 1 2 3 4 5 6 7 8 9 10 11 12 13 14 15 16 17 18 19 20 21 22 23 24 25 26 27 28 29 30 31 32 33 34 35 36 37 38 39 40 41 42 43 44 45 46 47 48 49 50
000 ASUS42 KCHS 200412 RWRCHS REGIONAL WEATHER ROUNDUP NATIONAL WEATHER SERVICE CHARLESTON SC 1100 PM EST THU JAN 19 2017 NOTE: "FAIR" INDICATES FEW OR NO CLOUDS BELOW 12,000 FEET WITH NO SIGNIFICANT WEATHER AND/OR OBSTRUCTIONS TO VISIBILITY. NOT ALL STATIONS ARE QUALITY CONTROLLED. USE DATA WITH CAUTION... ESPECIALLY DEWPOINT OBSERVATIONS. SCZ027-030-031-034>040-042>050-200500- ...SOUTHEAST SOUTH CAROLINA... CITY SKY/WX TMP DP RH WIND PRES REMARKS N CHARLESTON MOCLDY 56 52 86 CALM 29.98F WATERFRONT PRK N/A 58 56 92 VRB3 29.98R MOUNT PLEASANT LGT RAIN 54 54 100 CALM 29.98F JOHNS ISLAND FAIR 57 55 94 CALM 29.98S PINOPOLIS N/A 55 50 82 CALM 29.90R MONCKS CORNER FAIR 54 48 82 CALM 29.98F SUMMERVILLE FAIR 55 52 88 CALM 29.99S BEAUFORT MCAS CLOUDY 59 56 89 E3 29.97S BEAUFORT ARPT FAIR 55 55 100 E5 29.97S HILTON HEAD IS CLOUDY 57 55 94 CALM 29.98S WALTERBORO CLOUDY 55 52 88 SE3 29.99R ALLENDALE FAIR 59 57 94 CALM 29.96R ...SOUTHERN MIDLANDS AND PEE DEE... CITY SKY/WX TMP DP RH WIND PRES REMARKS GEORGETOWN FAIR 48 46 93 CALM 29.99F KINGSTREE FAIR 52 46 82 CALM 29.99S ORANGEBURG CLOUDY 58 52 80 SE3 29.98R BARNWELL FAIR 61 59 94 SE5 29.97R AIKEN FAIR 57 50 77 SE5 29.99S MANNING FAIR 52 41 66 CALM 29.98F COLUMBIA CLOUDY 58 46 64 E3 29.96S SUMTER MOCLDY 55 47 74 CALM 29.96S FLORENCE MOCLDY 52 46 80 SE5 29.99F MYRTLE BEACH PTCLDY 55 50 82 NE5 30.03R N MYRTLE BEACH PTCLDY 54 50 86 E3 30.00R $$ GAZ063-065-086>088-099>101-113>116-118-119-134>141-150-200500- ...SOUTHEAST GEORGIA... CITY SKY/WX TMP DP RH WIND PRES REMARKS SAVANNAH ARPT FOG 58 56 93 SE6 29.98R VSB 1/4 HUNTER AAF FOG 57 57 100 E5 29.95S VSB 1 FORT STEWART CLOUDY 57 54 91 CALM 29.95R STATESBORO CLOUDY 61 57 88 CALM 29.97S SYLVANIA CLOUDY N/A N/A N/A CALM 29.98R CLAXTON FAIR N/A N/A N/A CALM 29.96S ...CSRA...CENTRAL AND FAR SOUTHEAST GEORGIA... CITY SKY/WX TMP DP RH WIND PRES REMARKS THOMSON CLOUDY 65 55 70 SE3 29.98S AUGUSTA-BUSH CLOUDY 62 52 69 SE6 29.95R AUGUSTA-DANIEL CLOUDY 63 50 62 SE6 29.96R SWAINSBORO MOCLDY 63 59 88 SE7 29.96R VIDALIA CLOUDY 64 63 94 SE5 29.95S EASTMAN FAIR 65 58 78 S5 29.96S HAZLEHURST FAIR 67 64 91 S5 29.94S ALMA CLOUDY 64 62 93 SE5 29.95S WAYCROSS PTCLDY 67 67 100 S5 29.96S JESUP FAIR 61 57 88 CALM 29.97S BAXLEY MOCLDY 66 66 100 S3 29.95S BRUNSWICK PTCLDY 59 59 100 CALM 29.98S SAINT SIMONS MOCLDY 64 60 87 S3 29.96S $$ SCZ027-028-034-036>038-045-046-048>050-GAZ119-141-200500- ...LAKE AND SUPPLEMENTAL COASTAL OBSERVATIONS... STATION/POSITION TIME TEMP WIND PRES WAVE SWELL AIR SEA DIR/SP/G HT/PER HT/PER/DIR (UTC) (F) (DEG/KT/KT) (MB) (FT/S) (FT/S/D) WINYAH BAY 0245 55 70/ 4 1015.0 LAKE MURRAY 0320 60 110/ 6/ 8 1014.2 ACE BASIN NERRS NOT AVBL FORT PULASKI 0348 58 58 120/ 3/ 3 1015.1R SAPELO ISLAND 0300 60 90/ 1 1014.0 $$ ANZ835-935-AMZ111-154-330-350-352-354-370-450-454-472-200500- ...C-MAN AND BUOY OBSERVATIONS... STATION/POSITION TIME TEMP WIND PRES WAVE SWELL AIR SEA DIR/SP/G HT/PER HT/PER/DIR (UTC) (F) (DEG/KT/KT) (MB) (FT/S) (FT/S/D) BUOY 41004 0250 68 71 80/ 12/ 14 1014.1 3/ 8 2/100/ 8 BUOY 41008 0250 61 60 90/ 6/ 8 1014.4 1/ 9 2/ 70/ 9 FOLLY BEACH CMAN 0300 57 20/ 4/ 5 1015.7R CAPERS NEARSHORE 0308 57 55 80/ 6/ 10 1015.0R FRIPP NEARSHORE 0308 58 57 60/ 4/ 6 1014.7R STATION/POSITION TIME TEMP WIND PRES WAVE SWELL AIR SEA DIR/SP/G HT/PER HT/PER/DIR (UTC) (F) (DEG/KT/KT) (MB) (FT/S) (FT/S/D) 5E ST. MARYS GA 0330 64 N/A 1/ 8 FRYING PAN BUOY 0350 65 70 90/ 10/ 12 1015.3S 2/ 8 2/ 80/ 8 BUOY 41025 0350 55 76 20/ 4/ 8 1017.3R 4/10 3/ 50/10 CAPE LOOKOUT NC 0300 57 100/ 2/ 3 1016.3F BUOY 41002 0350 67 71 20/ 2/ 6 1016.3R 6/ 9 7/ 30/ 9 BUOY 41010 NOT AVBL ST AUGUSTINE FL 0400 63 64 240/ 4/ 5 1015.7R $$

USA.gov is the U.S. government's official web portal to all federal, state and local government web resources and services.